Satellite: NOAA-17
Catalog number: 27453
Epoch time:      12215.66360015
Element set:     788
Inclination:      098.3345 deg
RA of node:       240.3493 deg
Eccentricity:    0.0012141
Arg of perigee:   024.9970 deg
Mean anomaly:     335.1788 deg
Mean motion:   14.24465878 rev/day
Decay rate:       3.07e-06 rev/day^2
Epoch rev:           52537
Checksum:              313

Satellite: NOAA-18
Catalog number: 28654
Epoch time:      12215.63204521
Element set:     270
Inclination:      099.0487 deg
RA of node:       174.1162 deg
Eccentricity:    0.0015012
Arg of perigee:   027.0294 deg
Mean anomaly:     333.1640 deg
Mean motion:   14.11679994 rev/day
Decay rate:        2.6e-07 rev/day^2
Epoch rev:           37111
Checksum:              272

Satellite: NOAA-19
Catalog number: 33591
Epoch time:      12215.65031028
Element set:     459
Inclination:      098.8646 deg
RA of node:       154.8682 deg
Eccentricity:    0.0013128
Arg of perigee:   249.9340 deg
Mean anomaly:     110.0408 deg
Mean motion:   14.11366849 rev/day
Decay rate:        2.4e-07 rev/day^2
Epoch rev:           17956
Checksum:              308

/EX
SB KEPS @ AMSAT  $ORB12215.M
Orbital Elements  12215.MISC

HR AMSAT ORBITAL ELEMENTS FOR MANNED AND MISCELLANEOUS SATELLITES
FROM WA5QGD FORT WORTH,TX August 2, 2012
Send SUBSCRIBE KEPS/UNSUBSCRIBE KEPS to majordomo@amsat.org only
BID: ORB12215.M
TO ALL RADIO AMATEURS BT

Satellite: HUBBLE
Catalog number: 20580
Epoch time:      12215.15326402
Element set:      47
Inclination:      028.4693 deg
RA of node:       202.7095 deg
Eccentricity:    0.0003583
Arg of perigee:   184.7121 deg
Mean anomaly:     175.3444 deg
Mean motion:   15.02654014 rev/day
Decay rate:      1.229e-05 rev/day^2
Epoch rev:            2165
Checksum:              252

Satellite: ISS
Catalog number: 25544
Epoch time:      12215.90472985
Element set:      46
Inclination:      051.6396 deg
RA of node:       249.0025 deg
Eccentricity:    0.0001145
Arg of perigee:   009.7490 deg
Mean anomaly:     048.1252 deg
Mean motion:   15.54918093 rev/day
Decay rate:     2.1088e-04 rev/day^2
Epoch rev:           78528
Checksum:              300

Satellite: CO-58
Catalog number: 28895
Epoch time:      12214.63737407
Element set:    0241
Inclination:      097.9080 deg
RA of node:       078.8999 deg
Eccentricity:    0.0017682
Arg of perigee:   012.9777 deg
Mean anomaly:     347.1933 deg
Mean motion:   14.60690778 rev/day
Decay rate:      +6.19e-06 rev/day^2
Epoch rev:           36029
Checksum:              365

Satellite: FALCON
Catalog number: 30776
Epoch time:      12215.74184904
Element set:     404
Inclination:      035.4341 deg
RA of node:       352.4229 deg
Eccentricity:    0.0001526
Arg of perigee:   045.2614 deg
Mean anomaly:     314.8228 deg
Mean motion:   15.07845874 rev/day
Decay rate:      3.327e-05 rev/day^2
Epoch rev:           29728
Checksum:              290

Satellite: MAST
Catalog number: 31126
Epoch time:      12214.97975477
Element set:    0525
Inclination:      097.8728 deg
RA of node:       223.4033 deg
Eccentricity:    0.0093421
Arg of perigee:   328.6730 deg
Mean anomaly:     030.8923 deg
Mean motion:   14.54212808 rev/day
Decay rate:      +5.35e-06 rev/day^2
Epoch rev:           28092
Checksum:              301

Satellite: CAPE1
Catalog number: 31130
Epoch time:      12214.91617364
Element set:    0533
Inclination:      097.8833 deg
RA of node:       219.6993 deg
Eccentricity:    0.0101232
Arg of perigee:   342.3396 deg
Mean anomaly:     017.4315 deg
Mean motion:   14.53009217 rev/day
Decay rate:      +8.25e-06 rev/day^2
Epoch rev:           28041
Checksum:              277

Satellite: COMPASS
Catalog number: 32787
Epoch time:      12214.64682246
Element set:    0372
Inclination:      097.7966 deg
RA of node:       274.9724 deg
Eccentricity:    0.0014093
Arg of perigee:   272.8142 deg
Mean anomaly:     087.1455 deg
Mean motion:   14.84156106 rev/day
Decay rate:     +1.366e-05 rev/day^2
Epoch rev:           23055
Checksum:              316

Satellite: AAUSAT2
Catalog number: 32788
Epoch time:      12215.61745642
Element set:     363
Inclination:      097.7992 deg
RA of node:       276.3295 deg
Eccentricity:    0.0013281
Arg of perigee:   270.5713 deg
Mean anomaly:     089.3962 deg
Mean motion:   14.84497982 rev/day
Decay rate:      2.225e-05 rev/day^2
Epoch rev:           23072
Checksum:              331

Satellite: DO-64
Catalog number: 32789
Epoch time:      12215.75126357
Element set:     379
Inclination:      097.8103 deg
RA of node:       278.6627 deg
Eccentricity:    0.0013367
Arg of perigee:   264.7651 deg
Mean anomaly:     095.2011 deg
Mean motion:   14.86097380 rev/day
Decay rate:      3.584e-05 rev/day^2
Epoch rev:           23079
Checksum:              336

Satellite: CO-66
Catalog number: 32791
Epoch time:      12214.58730570
Element set:    0361
Inclination:      097.7967 deg
RA of node:       274.6197 deg
Eccentricity:    0.0014100
Arg of perigee:   270.9433 deg
Mean anomaly:     089.0214 deg
Mean motion:   14.83545812 rev/day
Decay rate:     +1.245e-05 rev/day^2
Epoch rev:           23047
Checksum:              308

